Dewpoint
51 51 51 51 51 50 50 50 50 50 49 49 49 49 49 50 49 49 49 49 49 49 48 48 48 49 49 50 49 50 51 53 54 57 57 57 57 57 58 60 60 61 62 62 62 62 62 61 61 62 62 62 62 62 62 62 62 62 61 61 60 60 60 58 57 56 57 58 61 61 61 62 62 62 62 62 62 62 61 63 62 62 60 60 58
50 50 50 50 50 49 49 49 49 49 49 49 49 48 49 49 48 48 48 48 48 48 47 47 48 48 48 48 48 48 48 48 50 54 55 54 54 55 55 55 55 58 61 61 62 62 62 61 61 62 62 62 62 62 62 62 62 61 61 61 60 60 60 59 58 57 56 56 59 61 61 62 60 62 61 61 62 60 61 62 62 62 60 60 59
50 50 50 49 49 49 49 49 49 49 49 49 48 48 48 48 48 48 47 47 48 47 47 47 47 47 47 47 47 47 47 48 49 50 52 52 51 51 52 52 53 54 56 58 60 61 61 61 61 61 62 62 62 62 62 62 62 61 61 61 60 60 60 60 58 56 56 57 59 59 60 61 61 61 61 61 62 61 61 62 62 61 61 60 59
49 49 49 49 49 48 48 49 49 49 48 48 48 48 48 48 48 47 47 47 47 47 47 46 47 46 46 46 46 46 46 47 47 48 50 51 50 49 49 49 49 51 53 54 57 59 60 60 60 61 61 61 61 62 62 62 61 61 61 61 60 60 60 60 60 58 57 57 58 59 60 60 61 62 62 62 61 60 61 62 62 60 60 60 59
49 49 49 48 48 48 48 49 48 48 48 48 48 48 48 47 47 47 47 46 46 46 46 46 46 46 46 45 45 45 46 46 46 46 47 49 50 49 48 48 48 49 50 52 55 56 59 60 61 61 61 61 61 61 61 61 61 61 61 61 61 60 60 60 60 59 58 57 57 59 60 61 61 61 62 60 60 60 61 60 60 59 59 59 58
49 48 48 48 48 48 48 48 48 48 48 48 47 47 47 47 46 46 46 46 46 46 45 46 46 45 45 45 45 45 45 45 45 45 46 47 47 47 47 46 47 47 48 50 52 54 56 59 61 61 61 61 61 61 61 61 61 61 61 61 61 60 60 60 60 59 59 58 58 57 59 59 59 60 61 60 59 58 58 59 60 59 58 58 58
48 48 47 47 47 47 47 47 47 47 47 47 47 47 47 47 46 45 46 45 45 45 45 45 45 45 45 45 45 45 45 45 45 45 45 45 44 44 45 45 46 46 48 49 51 53 55 58 60 61 61 61 61 61 61 61 61 61 61 61 60 59 59 59 59 59 58 58 58 58 58 59 59 58 60 60 59 58 57 57 57 58 58 58 57
47 47 46 46 46 46 46 46 46 46 46 45 45 46 46 46 45 45 45 45 45 44 44 44 44 44 44 44 45 45 44 44 45 44 43 43 43 43 43 44 45 46 47 49 51 53 55 57 60 61 61 61 61 61 61 61 61 60 61 61 60 59 59 59 59 58 58 58 57 57 58 58 58 59 60 59 58 57 57 56 56 56 57 58 56
46 46 45 45 45 45 45 46 45 44 44 44 44 44 45 45 45 45 45 44 45 44 44 44 44 44 44 44 44 44 44 44 44 43 43 43 44 44 44 44 45 46 47 49 51 53 55 57 60 61 61 61 57 56 57 57 60 60 60 60 59 59 59 59 58 58 57 57 57 57 57 57 57 57 57 57 56 55 57 57 56 57 57 56 56
46 46 46 45 44 43 43 44 43 43 42 42 42 43 43 44 44 44 44 44 44 44 43 44 43 43 43 43 43 43 43 43 44 42 42 44 45 45 45 45 45 46 48 50 52 54 55 57 58 59 57 56 55 52 50 51 52 57 60 60 59 59 58 58 58 58 58 57 57 57 56 56 56 57 57 57 57 57 57 56 55 56 56 55 55
45 45 45 45 45 43 42 42 42 41 41 41 42 42 42 43 44 44 44 43 43 43 43 43 43 43 43 42 42 42 42 42 40 39 40 42 46 47 46 46 48 49 50 49 49 50 51 51 53 56 57 58 58 52 50 48 47 47 48 51 56 59 58 58 58 58 57 57 57 57 57 56 56 57 57 57 57 57 56 56 55 55 54 52 51
44 44 44 44 44 44 42 41 40 40 41 40 41 41 42 43 43 43 43 43 43 43 43 42 42 42 42 42 41 41 41 41 38 39 40 40 44 48 49 49 48 48 48 48 48 48 48 49 51 52 55 56 57 57 55 51 49 47 46 45 46 47 50 57 58 57 57 57 57 57 57 57 56 56 57 57 56 57 56 56 55 55 54 53 53
43 42 42 42 42 42 42 41 39 39 39 40 40 41 41 42 42 43 42 43 42 42 42 42 42 42 42 41 41 40 40 39 38 39 39 40 41 46 48 48 48 47 47 46 46 46 47 48 49 51 53 54 54 52 53 55 51 50 47 46 45 45 43 44 48 57 59 58 57 57 57 57 57 56 57 57 56 56 56 56 55 55 54 54 53
41 41 41 41 41 41 41 40 39 39 39 39 40 40 41 41 42 42 42 42 42 41 41 41 41 41 41 41 40 40 40 39 38 38 39 39 40 44 47 47 47 46 45 45 45 45 46 46 47 48 49 50 49 48 50 53 55 56 56 55 55 54 48 45 44 44 49 57 58 57 58 58 58 57 57 56 56 56 56 55 55 54 54 53 53
40 40 40 40 40 40 39 39 39 39 38 38 39 40 40 41 41 42 41 41 41 41 40 41 41 41 41 41 40 40 40 38 37 38 38 39 40 43 46 46 46 45 45 44 44 44 44 45 45 46 46 46 45 44 48 52 54 54 54 52 51 51 50 48 49 50 52 55 57 58 59 59 59 58 57 58 57 57 57 56 55 55 54 54 54
39 39 39 39 39 39 39 38 38 38 38 38 39 39 40 40 40 41 41 41 41 40 40 40 40 40 41 41 40 39 39 38 37 38 38 38 41 45 45 45 45 45 44 44 44 44 44 44 44 43 43 43 42 40 43 50 51 50 50 49 49 48 48 47 44 42 45 49 52 54 57 59 55 58 56 58 58 57 55 55 55 54 53 52 51
38 38 38 38 39 38 38 38 38 38 38 38 38 39 39 39 40 41 40 40 40 40 40 39 40 40 40 40 40 39 39 38 37 37 37 38 41 43 44 44 43 43 43 43 43 43 43 43 42 43 42 42 40 39 41 45 48 48 48 47 47 47 47 48 45 44 43 42 42 41 41 44 47 49 48 49 53 55 56 54 52 53 52 51 51
38 38 37 37 37 37 37 37 37 37 37 37 38 38 39 39 40 41 40 40 39 40 40 39 39 39 39 39 40 39 39 39 37 37 37 37 41 42 42 42 41 42 42 43 43 43 43 43 44 41 41 41 38 39 40 45 45 46 46 45 45 45 45 46 47 47 44 43 43 42 42 43 44 45 46 47 47 51 55 53 53 53 51 51 50
37 36 36 36 36 37 37 37 36 36 37 37 37 37 38 38 39 39 39 39 39 39 41 39 39 39 39 39 40 39 38 39 38 37 37 37 40 41 41 41 41 41 41 41 42 42 42 42 42 40 40 39 37 38 39 43 44 44 44 44 44 43 44 44 45 45 45 45 45 46 45 46 48 49 50 45 47 51 56 55 54 53 51 50 50
36 35 35 35 36 36 36 37 37 36 36 37 37 37 38 37 37 38 38 38 39 39 39 39 38 38 39 39 39 39 39 39 39 37 37 37 38 40 40 40 40 40 40 41 40 41 42 41 41 38 37 38 38 37 38 39 43 43 43 43 43 43 45 44 44 44 44 44 44 44 44 45 46 46 47 48 49 52 54 55 54 54 52 50 50
35 35 35 34 34 35 35 35 35 36 36 36 37 38 37 37 38 38 39 39 39 39 39 39 38 38 38 38 38 38 39 39 39 37 37 37 37 38 39 39 40 40 39 39 40 40 40 41 41 39 37 37 38 38 38 38 39 42 42 42 42 42 43 44 44 43 43 43 43 43 44 44 44 44 45 45 45 46 48 49 53 52 52 50 50
35 34 34 34 34 34 34 35 36 36 37 36 36 36 37 37 38 38 38 38 38 38 38 38 38 38 38 38 38 38 39 39 38 38 36 37 36 37 38 38 39 39 39 39 39 39 40 40 40 39 37 37 37 38 38 39 39 42 40 37 38 38 43 44 44 43 43 42 42 42 42 42 42 42 43 44 44 45 46 46 47 50 50 50 51
34 33 33 33 34 33 33 34 34 35 35 36 35 35 36 36 36 37 37 37 37 37 37 37 37 37 37 37 38 38 38 38 38 38 37 36 36 36 36 37 37 39 39 38 39 39 39 40 40 39 37 37 37 37 38 38 40 40 38 38 38 39 41 42 42 42 42 41 41 40 41 41 41 41 42 42 43 44 44 45 46 46 46 46 47
33 33 33 32 32 33 32 33 32 33 34 35 35 35 35 36 36 36 36 36 36 36 36 36 36 36 36 37 37 38 38 38 38 37 37 36 36 36 36 36 36 38 39 39 38 38 38 38 38 37 37 37 37 37 37 38 39 37 38 38 39 40 43 42 42 41 40 40 40 40 40 41 41 41 41 42 42 43 44 44 44 45 45 45 46
32 32 31 31 31 31 31 31 31 32 32 33 33 34 34 35 35 35 36 35 35 35 36 36 36 36 36 37 37 37 38 38 38 38 37 37 36 36 36 36 36 36 38 39 39 39 36 36 36 36 37 37 37 38 38 38 37 37 38 39 42 42 42 42 41 41 40 39 39 40 40 40 41 41 42 43 42 43 42 43 43 44 44 44 44
33 32 32 32 31 30 30 30 31 31 31 32 33 33 33 34 34 34 34 35 35 35 35 36 36 36 36 36 37 37 38 38 37 38 38 38 37 36 36 36 37 37 38 38 36 36 36 36 36 36 37 37 39 39 39 38 37 38 38 40 41 42 42 41 41 40 40 40 39 39 40 40 41 41 41 42 42 41 42 41 42 42 43 43 42
34 32 32 32 32 31 31 30 30 31 31 31 31 32 32 32 33 34 33 34 34 35 35 35 35 36 36 36 37 37 37 38 37 37 37 37 37 37 37 36 37 36 37 37 37 38 37 37 36 35 36 36 36 36 37 37 38 39 40 40 41 41 41 41 40 40 40 40 39 40 40 40 41 40 40 40 40 41 41 41 41 40 41 41 41
32 32 32 32 33 32 32 31 31 30 30 31 31 31 31 31 32 32 33 33 34 34 34 34 34 34 35 35 36 37 37 37 37 36 37 37 37 36 36 36 36 36 36 36 36 36 35 34 34 35 35 35 36 37 37 37 37 37 38 39 39 39 39 39 39 40 40 40 40 40 40 39 39 39 40 40 40 40 41 40 40 39 40 40 39
33 32 31 32 32 33 33 32 31 30 30 30 30 31 32 31 31 31 32 32 32 34 33 33 34 34 33 34 35 36 36 36 36 35 36 35 35 37 36 36 36 36 36 34 36 34 33 32 32 32 33 33 33 34 35 35 35 36 36 37 38 38 38 38 37 38 38 39 37 38 38 38 38 38 39 39 39 39 40 40 40 40 39 39 37
32 32 32 32 32 32 32 31 32 32 31 30 30 31 31 34 33 32 32 35 34 34 34 33 34 33 33 33 34 35 35 36 35 35 35 35 35 35 35 35 34 34 34 33 34 32 32 31 32 32 32 32 32 31 32 34 33 34 35 34 35 36 37 37 37 37 35 36 36 36 36 36 37 38 38 38 38 39 39 38 38 38 37 36 35
33 32 33 32 33 33 32 31 32 31 30 30 30 30 31 31 32 33 34 35 34 34 34 34 34 34 35 33 33 33 34 34 34 35 35 35 35 35 34 34 34 34 33 32 32 31 30 30 31 32 32 32 31 31 32 31 31 31 33 34 34 34 34 36 36 34 33 33 34 34 35 35 35 36 36 36 37 38 38 38 38 38 37 36 35
33 32 32 32 33 33 33 33 32 31 30 30 29 29 30 30 30 31 33 34 33 34 34 34 33 34 34 34 34 33 33 34 34 35 35 34 34 34 34 34 34 34 33 32 30 30 31 31 31 32 31 30 31 30 32 32 32 33 32 30 31 32 34 33 34 36 34 34 32 32 33 34 35 34 35 34 33 36 36 35 36 35 35 36 35
32 32 32 32 32 32 32 31 31 30 30 30 29 29 29 29 28 28 30 32 33 33 33 33 33 33 33 33 34 33 33 33 34 34 34 33 33 33 33 33 33 33 33 31 30 30 32 33 33 33 32 31 33 33 32 33 33 32 33 32 31 32 33 33 32 33 32 33 32 32 32 33 33 32 32 32 33 32 33 34 36 36 35 34 32
33 33 32 32 33 32 31 30 30 30 30 29 29 29 28 28 29 29 29 28 29 31 32 32 33 33 33 33 33 33 33 33 33 33 33 33 32 32 32 33 33 33 33 32 32 31 33 33 33 33 33 33 32 32 31 31 31 31 30 30 30 30 30 31 30 31 30 31 31 30 31 32 32 32 32 32 33 33 32 32 33 32 32 33 33
33 31 30 31 31 31 30 29 30 30 29 29 29 29 29 28 28 28 28 28 28 29 29 30 31 33 33 32 32 33 33 33 33 32 32 32 32 32 32 31 31 30 31 32 32 33 32 32 33 33 33 31 31 30 30 30 29 29 29 29 28 29 29 29 29 29 29 30 30 30 30 31 32 32 31 31 31 31 31 31 32 33 33 32 32
33 32 32 31 30 30 30 30 30 30 30 29 29 28 28 28 28 28 27 28 28 28 28 29 29 31 32 33 33 32 33 33 33 33 32 32 32 32 29 28 29 29 29 30 31 30 31 31 31 31 31 31 30 29 29 29 29 28 28 28 28 28 29 29 28 29 29 29 28 29 30 30 31 30 31 31 31 31 31 31 31 31 31 32 31
32 31 31 30 30 30 30 30 29 30 28 28 28 28 28 28 27 28 28 28 28 28 28 28 29 30 31 30 34 32 32 32 33 32 32 32 31 30 29 29 29 29 28 29 29 28 28 28 29 29 29 29 29 29 29 28 28 28 28 27 28 28 28 29 28 28 28 27 28 29 29 29 29 30 30 30 30 30 30 30 30 30 30 30 30
31 31 31 30 30 31 31 30 29 27 27 28 29 29 28 28 28 28 27 27 28 27 28 28 30 28 28 29 36 31 30 31 31 31 31 30 29 29 29 29 29 28 29 29 29 29 28 28 28 28 29 29 29 29 28 28 28 28 28 28 28 28 29 28 27 29 27 27 26 26 26 27 27 28 29 29 28 28 28 29 29 29 29 30 29
30 28 28 28 29 31 31 29 29 29 29 29 28 28 27 27 28 27 28 27 27 28 27 28 29 29 29 29 29 30 29 27 27 26 27 28 28 29 29 29 29 29 29 29 29 28 28 28 28 28 28 28 29 28 28 28 28 27 27 28 28 27 26 25 26 26 25 25 25 25 25 25 26 27 27 27 27 28 28 29 28 28 28 27 27
30 30 29 28 29 29 29 29 29 29 28 30 30 29 29 29 29 28 27 27 28 27 27 28 28 29 29 29 30 30 28 27 25 26 26 27 27 29 29 29 29 29 29 29 29 29 29 28 28 28 28 28 28 27 27 27 28 26 27 26 26 26 25 25 25 25 25 25 25 25 25 25 25 26 27 26 26 27 28 28 27 27 27 27 27
30 29 29 29 28 29 29 29 29 30 29 29 29 29 30 29 28 27 28 28 27 27 28 28 29 29 29 30 31 28 28 28 27 27 27 27 27 28 29 29 28 29 29 29 29 28 28 28 28 28 28 27 27 28 27 27 27 27 26 25 26 26 26 26 25 25 25 25 25 25 25 26 25 26 25 25 27 26 25 26 26 26 26 26 27
28 28 28 29 29 29 29 29 29 29 29 28 28 29 28 28 28 28 28 27 27 28 28 29 30 29 29 31 31 29 28 28 28 28 28 28 28 28 28 29 29 29 29 29 29 29 27 26 26 26 27 27 27 26 27 27 26 26 25 25 26 26 26 25 25 24 24 24 24 24 24 26 26 27 26 27 24 25 25 25 25 25 25 25 25
29 29 28 28 28 29 29 30 30 29 28 28 29 28 28 29 29 28 28 28 28 28 28 29 30 30 29 28 28 27 28 28 27 28 28 28 28 27 28 28 29 29 29 29 29 29 27 24 24 24 24 26 27 25 24 23 23 24 24 25 25 25 25 25 25 24 24 24 24 23 24 24 24 24 24 23 24 24 24 25 25 24 24 25 25
29 28 28 28 28 28 28 28 28 28 29 29 29 28 28 28 28 29 29 29 29 28 28 29 29 29 29 28 28 28 28 28 28 28 28 28 28 27 28 28 28 29 29 29 29 28 26 24 22 23 25 26 27 28 25 24 23 23 23 24 24 24 24 24 24 24 22 22 23 23 22 22 22 22 23 22 23 23 23 24 24 24 23 23 23
29 28 28 28 28 28 27 27 27 28 27 27 28 28 27 28 28 28 28 29 28 28 28 28 27 27 27 28 29 29 29 29 27 27 28 29 28 28 28 28 28 28 27 26 27 28 25 23 21 21 23 24 26 28 27 27 27 24 23 24 24 23 23 23 23 23 22 23 21 22 22 21 22 21 21 21 22 23 21 21 21 20 20 20 22
28 28 28 28 28 28 27 27 26 27 27 27 27 27 27 27 28 28 28 28 27 27 27 27 27 27 27 28 28 27 28 28 29 28 28 28 28 28 27 26 26 27 27 26 25 26 24 23 22 21 22 23 25 26 27 28 28 28 28 27 26 25 26 26 24 22 22 23 22 21 20 21 22 23 23 20 20 20 19 19 19 18 18 19 20
29 28 27 27 27 27 27 27 27 27 27 27 27 27 27 27 27 27 27 27 27 27 28 28 28 28 27 27 27 27 27 27 28 27 28 29 29 28 27 27 26 27 27 27 26 25 25 24 24 23 22 22 23 27 28 27 28 27 27 27 28 28 25 23 23 24 23 24 22 22 21 20 19 18 19 19 19 19 20 19 19 19 19 18 18
29 28 27 27 27 27 27 27 26 26 27 26 26 26 26 26 27 27 26 27 28 28 28 28 27 27 27 27 27 27 27 27 27 28 28 28 28 28 28 28 27 28 27 26 26 25 25 25 25 24 23 23 24 25 26 28 28 27 26 26 26 25 24 21 24 25 22 22 23 23 22 21 20 20 19 19 19 18 17 15 17 18 20 20 19
28 27 27 27 27 27 27 26 26 27 27 26 26 25 26 26 26 27 27 27 27 28 28 27 26 26 27 27 27 27 27 27 28 28 28 28 29 29 28 28 27 28 27 28 28 26 26 26 26 25 25 24 24 24 26 26 26 28 26 24 24 19 19 19 20 23 22 21 21 22 23 22 22 21 20 20 19 18 18 19 18 18 19 20 19
28 28 27 27 27 27 27 27 27 27 27 27 26 25 26 26 26 26 26 26 26 27 26 26 26 26 26 26 26 27 27 28 29 29 29 29 29 29 29 29 28 28 27 28 28 27 26 26 26 26 26 26 25 25 25 25 26 26 26 25 18 17 17 17 17 18 20 19 20 21 21 21 21 21 20 20 20 20 20 20 20 19 18 17 18
27 28 28 27 27 27 27 27 27 27 26 26 26 25 26 26 25 25 26 26 25 26 25 25 25 26 26 26 27 27 27 28 28 29 29 29 29 29 29 29 28 29 28 28 28 27 28 27 27 26 26 26 26 26 26 26 25 24 23 20 18 17 17 16 18 15 16 16 20 22 20 20 19 19 19 20 21 19 20 19 20 19 19 18 19